Home   Weather   Borken   Past weeks

Flag for Germany Past Weather in Borken, North Rhine-Westphalia, Germany — Yesterday and Last 2 Weeks

43 °F


Feels Like: 43 °F
Forecast: 45 / 51 °F
Wind: 2 mph from North

Location: Niederrhein

Current Time: Oct 24, 2016 at 5:27:27 AM

Latest Report: Oct 24, 2016 at 4:50 AM

Visibility: 2 mi

Pressure: 29.89 "Hg

Humidity: 100%

Dew Point: 43 °F

Location of BorkenLocation

Past Weather in Borken — Graph


Borken Temperature Yesterday

Maximum temperature yesterday: 43 °F (at 2:50 PM)
Minimum temperature yesterday: 32 °F (at 4:50 AM)
Average temperature yesterday: 38 °F

High & Low Weather Summary for the Past Weeks

High66 °F (Oct 16, 2:50 PM)100% (Oct 9, 4:50 AM)30.30 "Hg (Oct 9, 4:50 AM)
Low32 °F (Oct 23, 4:50 AM)47% (Oct 9, 2:20 PM)29.65 "Hg (Oct 15, 4:50 AM)
Average49 °F88%30.03 "Hg
* Reported Oct 8 11:20 PM — Oct 23 11:50 PM, Borken, Weather by CustomWeather, © 2016

Note: Actual official high and low records may vary slightly from our data, if they occured in-between our weather recording intervals... More about our weather records


Borken Weather History for the Previous 24 Hours

Scroll right to see more
Time TempWeatherWind HumidityBarometerVisibility
11:50 PM
Sun, Oct 23
41 °FFog.1 mph100%29.89 "Hg2 mi
11:20 PM41 °FFog.2 mph100%29.92 "Hg2 mi
10:50 PM41 °FFog.3 mph100%29.89 "Hg2 mi
10:20 PM39 °FFog.2 mph100%29.89 "Hg2 mi
9:50 PM39 °FFog.2 mph100%29.89 "Hg1 mi
9:20 PM39 °FFog.3 mph100%29.92 "Hg1 mi
8:50 PM39 °FFog.1 mph100%29.89 "Hg0 mi
8:20 PM39 °FFog.1 mph100%29.89 "Hg0 mi
7:50 PM39 °FFog.3 mph100%29.89 "Hg0 mi
7:20 PM41 °FFog.No wind100%29.89 "Hg0 mi
6:50 PM41 °FFog.2 mph100%29.92 "Hg1 mi
6:20 PM41 °FFog.No wind100%29.92 "Hg1 mi
5:50 PM43 °FFog.No wind100%29.92 "Hg1 mi
5:20 PM43 °FFog.2 mph100%29.89 "Hg1 mi
4:50 PM43 °FFog.3 mph100%29.89 "Hg1 mi
4:20 PM43 °FFog.5 mph100%29.92 "Hg1 mi
3:50 PM43 °FFog.5 mph100%29.92 "Hg1 mi
3:20 PM43 °FFog.3 mph100%29.92 "Hg1 mi
2:50 PM43 °FFog.5 mph100%29.92 "Hg1 mi
2:20 PM41 °FFog.3 mph100%29.92 "Hg1 mi
1:50 PM41 °FFog.7 mph100%29.92 "Hg1 mi
1:20 PM41 °FFog.5 mph100%29.92 "Hg1 mi
12:50 PM41 °FFog.3 mph100%29.92 "Hg1 mi
12:20 PM41 °FFog.5 mph100%29.95 "Hg0 mi
11:50 AM39 °FFog.2 mph100%29.95 "Hg0 mi
11:20 AM37 °FFog.2 mph100%29.95 "Hg0 mi
10:50 AM37 °FFog.2 mph100%29.95 "Hg0 mi
10:20 AM36 °FFog.1 mph100%29.95 "Hg0 mi
9:50 AM34 °FFog.No wind100%29.95 "Hg0 mi
9:20 AM34 °FFog.3 mph100%29.95 "Hg0 mi
8:50 AM32 °FFog.2 mph100%29.95 "Hg0 mi
8:20 AM32 °FFog.No wind100%29.92 "Hg0 mi
7:50 AM32 °FFog.2 mph100%29.92 "Hg0 mi
6:50 AM32 °FFog.No wind100%29.95 "Hg0 mi
6:20 AM32 °FFog.No wind100%29.95 "Hg0 mi
5:50 AM32 °FIce fog.No wind100%29.95 "Hg0 mi
5:20 AM32 °FFog.No wind100%29.95 "Hg1 mi
Weather by CustomWeather, © 2016

See weather overviewHow to use our weather pages